Location: Newark
(44.4156°N, 12.1972°E)
Time: 10:29:14
(UTC+00:00)

STARLINK-1086 - Pass Details

Date: 31 January 2020
Orbit: 348 x 351 km, 53.0° (Epoch: 22 February)

Event Time Altitude Azimuth Distance (km) Brightness Sun altitude
Rises 18:33:31 0° 294° (WNW) 2,166 7.7 -24.3°
Reaches altitude 10° 18:35:49 10° 277° (W) 1,319 6.6 -24.7°
Enters shadow 18:37:31 20° 244° (WSW) 893 5.4 -25.0°
